sat.trackr.live / text

‹ back to catalog

ZHONGXING-10

NORAD 37677 · 2011-026A

PAYLOAD ACTIVE UNKNOWN

§ Identity

Operator
Country
PRC
Launch date
2011-06-20
Launch site
XICLF
Launch vehicle
Mass (kg)
RCS (m²)
50.12

Purposes: comms

External: N2YO · Heavens-Above · Gunter

§ Orbital elements

Epoch: 2026-05-25T00:43:36.960960Z

Period
1,436.08 min
Inclination
0.9893°
Eccentricity
0.0003181
Mean motion
1.00273141 rev/d
Perigee alt
35,772.8 km
Apogee alt
35,799.6 km
Semi-major
42,164.4 km
B*
0.0000e+0
RAAN
84.4416°
Arg perigee
341.8105°
Mean anomaly
272.7761°
Rev number
5,476

§ Raw data

ZHONGXING-101 37677U 11026A   26145.03028890 -.00000191  00000+0  00000+0 0  99982 37677   0.9893  84.4416 0003181 341.8105 272.7761  1.00273141 54766

JSON: /api/v1/satellites/37677 · /tle

For live sub-satellite position, see the globe view (requires WebGL).

§ Visibility from observer

Set your observer location to see the next 7 days of passes ≥ 10°. The values pass through the URL so the page stays shareable.

No JS? Fill the form by hand. The geolocation button needs JavaScript.